Location: Butler
(32.5575°N, 84.2380°W)
Time: 21:32:18
(UTC+00:00)

N. Korean satellite - Pass Details

Date: 07 December 2021
Orbit: 447 x 490 km, 97.3° (Epoch: 27 January)

Event Time Altitude Azimuth Distance (km) Brightness Sun altitude
Rises 11:18:26 0° 357° (N) 2,451 9.9 -14.0°
Reaches altitude 10° 11:20:39 10° 345° (NNW) 1,576 8.8 -13.5°
Maximum altitude 11:23:32 27° 286° (WNW) 895 7.3 -13.0°
Drops below altitude 10° 11:26:25 10° 227° (SW) 1,573 8.9 -12.4°
Sets 11:28:38 0° 215° (SW) 2,445 10.0 -11.9°
